Alliance, NE

11:10 AM MDT on August 27, 2016 (GMT -0600)
Alliance Municipal

Weather History for KAIA - April, 2013

Change the Weather History Date:

Sunday, April 28, 2013

  Actual Average Record
Temperature  
Mean Temperature 53 °F 48 °F  
Max Temperature 75 °F 64 °F 91 °F (1910)
Min Temperature 30 °F 33 °F 17 °F (1998)
Degree Days  
Heating Degree Days 12 17  
Month to date heating degree days 773 571  
Since 1 July heating degree days 6805 6857  
Cooling Degree Days 0 0  
Month to date cooling degree days 0 0  
Year to date cooling degree days 0 0  
Growing Degree Days 4 (Base 50)    
Moisture  
Dew Point 31 °F    
Average Humidity 47    
Maximum Humidity 75    
Minimum Humidity 19    
Precipitation  
Precipitation 0.00 in 0.05 in 1.08 in (1975)
Month to date precipitation 0.14 1.34  
Year to date precipitation 0.71 2.75  
Sea Level Pressure  
Sea Level Pressure 29.80 in    
Wind  
Wind Speed 11 mph (NNE)    
Max Wind Speed 26 mph    
Max Gust Speed 33 mph    
Visibility 10 miles    
Events      
T = Trace of Precipitation, MM = Missing Value Source: NWS Daily Summary

Daily Weather History Graph

Daily Weather History Graph

Search for Another Location

Airport or City:

Trip Planner

Search our weather history database for the weather conditions in past years. The results will help you decide how hot, cold, wet, or windy it might be!

Date:

Astronomy

Apr. 28, 2013 Rise Set
Actual Time 5:50 AM MDT 7:47 PM MDT
Civil Twilight 5:20 AM MDT 8:17 PM MDT
Nautical Twilight 4:43 AM MDT 8:54 PM MDT
Astronomical Twilight 4:03 AM MDT 9:34 PM MDT
Moon 11:21 PM MDT (4/28) 8:07 AM MDT (4/28)
Length of Visible Light 14h 56m
Length of Day
13h 56m
Waning Gibbous, 88% of the Moon is Illuminated
Apr 28
Waning Gibbous
May 2
Last Quarter
May 9
New
May 17
First Quarter
May 24
Full

Hourly Weather History & Observations

Time (MDT) Temp. Windchill Dew Point Humidity Pressure Visibility Wind Dir Wind Speed Gust Speed Precip Events Conditions
12:53 AM 42.1 °F 37.1 °F 30.0 °F 62% 29.82 in 10.0 mi South 8.1 mph - N/A   Clear
1:53 AM 42.1 °F - 28.9 °F 60% 29.79 in 10.0 mi Calm Calm - N/A   Clear
2:53 AM 42.1 °F 38.4 °F 28.0 °F 58% 29.77 in 10.0 mi WNW 5.8 mph - N/A   Clear
3:53 AM 37.0 °F 31.6 °F 28.9 °F 73% 29.79 in 10.0 mi NNW 6.9 mph - N/A   Clear
4:53 AM 36.0 °F - 27.0 °F 70% 29.79 in 10.0 mi Calm Calm - N/A   Clear
5:53 AM 34.0 °F 28.8 °F 26.1 °F 73% 29.79 in 10.0 mi SW 5.8 mph - N/A   Clear
6:53 AM 44.1 °F 39.0 °F 33.1 °F 65% 29.77 in 10.0 mi WNW 9.2 mph - N/A   Clear
7:53 AM 59.0 °F - 32.0 °F 36% 29.76 in 10.0 mi West 19.6 mph 24.2 mph N/A   Clear
8:53 AM 64.0 °F - 28.9 °F 27% 29.77 in 10.0 mi WNW 16.1 mph - N/A   Clear
9:53 AM 70.0 °F - 27.0 °F 20% 29.77 in 10.0 mi North 26.5 mph 33.4 mph N/A   Clear
10:53 AM 68.0 °F - 30.9 °F 25% 29.81 in 10.0 mi North 20.7 mph 29.9 mph N/A   Clear
11:53 AM 66.9 °F - 30.9 °F 26% 29.83 in 10.0 mi NNE 13.8 mph - N/A   Clear
12:53 PM 70.0 °F - 30.0 °F 23% 29.82 in 10.0 mi NNE 12.7 mph 18.4 mph N/A   Clear
1:53 PM 69.1 °F - 28.9 °F 22% 29.82 in 10.0 mi NNE 11.5 mph - N/A   Clear
2:53 PM 73.9 °F - 30.9 °F 21% 29.80 in 10.0 mi NNE 16.1 mph 23.0 mph N/A   Clear
3:53 PM 75.0 °F - 30.9 °F 20% 29.80 in 10.0 mi NE 12.7 mph 20.7 mph N/A   Clear
4:53 PM 70.0 °F - 32.0 °F 25% 29.80 in 10.0 mi NE 16.1 mph - N/A   Clear
5:53 PM 69.1 °F - 32.0 °F 25% 29.82 in 10.0 mi NE 16.1 mph - N/A   Clear
6:53 PM 64.9 °F - 33.1 °F 31% 29.80 in 10.0 mi NE 12.7 mph - N/A   Clear
7:53 PM 57.0 °F - 35.1 °F 44% 29.81 in 10.0 mi NE 9.2 mph - N/A   Clear
8:53 PM 55.0 °F - 35.1 °F 47% 29.82 in 10.0 mi NE 15.0 mph - N/A   Clear
9:53 PM 54.0 °F - 35.1 °F 49% 29.83 in 10.0 mi ENE 9.2 mph - N/A   Clear
10:53 PM 48.9 °F - 35.1 °F 59% 29.84 in 10.0 mi ENE 5.8 mph - N/A   Clear
11:53 PM 45.0 °F 43.5 °F 35.1 °F 68% 29.84 in 10.0 mi NE 3.5 mph - N/A   Clear